cover

Stergios - Katharsis (John Cosani Remix)

Get it on iTunes StoreListen on Apple Music

Trackname / Key / BPM / Publish dateArtists, Remixers / Label
122 bpm, 8A / A minor, 2018-06-04, Progressive House,  0  20

Tracks in release Progressive Space Va Compilation, Vol. 2

#Trackname / Key / BPM / Publish dateArtists, Remixers / Label
1 123 bpm, 10B / D major, 2018-06-04, Progressive House,  0  20
2 124 bpm, 6A / G minor, 2018-06-04, Progressive House,  0  20
3 122 bpm, 7B / F major, 2018-06-04, Progressive House,  0  20
4 121 bpm, 7A / D minor, 2018-06-04, Progressive House,  0  20
5 120 bpm, 7A / D minor, 2018-06-04, Progressive House,  2  20
6 121 bpm, 7A / D minor, 2018-06-04, Progressive House,  0  20
7 123 bpm, 7A / D minor, 2018-06-04, Progressive House,  0  20
8 122 bpm, 8A / A minor, 2018-06-04, Progressive House,  0  20
9 121 bpm, 7A / D minor, 2018-06-04, Progressive House,  0  20
10 124 bpm, 11A / F# minor, 2018-06-04, Progressive House,  0  20
11 123 bpm, 11B / A major, 2018-06-04, Progressive House,  0  20
12 122 bpm, 11B / A major, 2018-06-04, Progressive House,  1  20
13 122 bpm, 3A / Bb minor, 2018-06-04, Progressive House,  0  20
14 123 bpm, 8A / A minor, 2018-06-04, Trance,  0  20
15 121 bpm, 7A / D minor, 2018-06-04, Progressive House,  0  20
16 124 bpm, 7B / F major, 2018-06-04, Progressive House,  0  20
17 122 bpm, 12A / Db minor, 2018-06-04, Progressive House,  0  20
18 123 bpm, 5B / Eb major, 2018-06-04, Progressive House,  0  20
19 121 bpm, 8A / A minor, 2018-06-04, Progressive House,  0  20
20 126 bpm, 8A / A minor, 2018-06-04, Trance,  0  20
×

Sign in

Sign in to access your personalized pages, follow artists and labels you love, and create playlists fromyour favorite tracks.

Please wait...